Los Angeles, CA

5:16 PM PDT on July 25, 2017 (GMT -0700)
Los Angeles International

Weather History for KLAX - October, 2013

Change the Weather History Date:

Tuesday, October 22, 2013

  Actual Average Record
Temperature  
Mean Temperature 62 °F 65 °F  
Max Temperature 67 °F 72 °F 101 °F (1965)
Min Temperature 56 °F 58 °F 46 °F (1949)
Degree Days  
Heating Degree Days 3 1  
Month to date heating degree days 19 19  
Since 1 July heating degree days 20 28  
Cooling Degree Days 0 2  
Month to date cooling degree days 71 51  
Year to date cooling degree days 662 519  
Growing Degree Days 12 (Base 50)    
Moisture  
Dew Point 56 °F    
Average Humidity 81    
Maximum Humidity 93    
Minimum Humidity 68    
Precipitation  
Precipitation 0.00 in 0.02 in 0.51 in (1987)
Month to date precipitation 0.02 0.34  
Year to date precipitation 2.66 9.44  
Since 1 July precipitation 0.05  
Sea Level Pressure  
Sea Level Pressure 29.96 in    
Wind  
Wind Speed 7 mph (West)    
Max Wind Speed 15 mph    
Max Gust Speed 18 mph    
Visibility 8 miles    
Events Fog    
T = Trace of Precipitation, MM = Missing Value Source: NWS Daily Summary

Daily Weather History Graph

Daily Weather History Graph

Search for Another Location

Airport or City:

Trip Planner

Search our weather history database for the weather conditions in past years. The results will help you decide how hot, cold, wet, or windy it might be!

Date:

Astronomy

Oct. 22, 2013 Rise Set
Actual Time 7:04 AM PDT 6:10 PM PDT
Civil Twilight 6:39 AM PDT 6:36 PM PDT
Nautical Twilight 6:10 AM PDT 7:05 PM PDT
Astronomical Twilight 5:41 AM PDT 7:34 PM PDT
Moon 9:02 PM PDT (10/22) 10:29 AM PDT (10/22)
Length of Visible Light 11h 57m
Length of Day
11h 06m
Waning Gibbous, 86% of the Moon is Illuminated
Oct 22
Waning Gibbous
Oct 26
Last Quarter
Nov 3
New
Nov 9
First Quarter
Nov 17
Full

Hourly Weather History & Observations

Time (PDT) Temp. Dew Point Humidity Pressure Visibility Wind Dir Wind Speed Gust Speed Precip Events Conditions
12:50 AM 60.8 °F 57.2 °F 88% 29.98 in 9.0 mi NNW 4.6 mph - N/A   Partly Cloudy
12:53 AM 61.0 °F 57.9 °F 90% 29.98 in 9.0 mi NNW 4.6 mph - N/A   Partly Cloudy
1:53 AM 61.0 °F 57.0 °F 87% 29.98 in 9.0 mi WNW 4.6 mph - N/A   Partly Cloudy
2:53 AM 57.9 °F 55.9 °F 93% 29.97 in 8.0 mi Calm Calm - N/A   Scattered Clouds
3:39 AM 57.2 °F 55.4 °F 94% 29.97 in 8.0 mi Calm Calm - N/A   Mostly Cloudy
3:53 AM 59.0 °F 55.0 °F 87% 29.97 in 8.0 mi Calm Calm - N/A   Mostly Cloudy
4:40 AM 57.2 °F 53.6 °F 88% 29.97 in 8.0 mi Calm Calm - N/A   Scattered Clouds
4:53 AM 57.0 °F 54.0 °F 89% 29.97 in 8.0 mi Calm Calm - N/A   Scattered Clouds
5:25 AM 57.2 °F 55.4 °F 94% 29.97 in 7.0 mi Calm Calm - N/A Fog Patches of Fog
5:53 AM 59.0 °F 55.0 °F 87% 29.98 in 7.0 mi West 5.8 mph - N/A Fog Patches of Fog
6:53 AM 59.0 °F 54.0 °F 83% 29.98 in 7.0 mi North 3.5 mph - N/A Fog Patches of Fog
7:28 AM 59.0 °F 55.4 °F 88% 29.99 in 6.0 mi West 3.5 mph - N/A Fog Patches of Fog
7:53 AM 60.1 °F 55.9 °F 86% 29.99 in 5.0 mi Calm Calm - N/A Fog Patches of Fog
8:21 AM 60.8 °F 55.4 °F 82% 29.99 in 4.0 mi North 4.6 mph - N/A Fog Patches of Fog
8:53 AM 61.0 °F 55.9 °F 83% 30.00 in 4.0 mi Calm Calm - N/A Fog Patches of Fog
9:53 AM 63.0 °F 57.0 °F 81% 30.01 in 4.0 mi WSW 3.5 mph - N/A Fog Patches of Fog
10:53 AM 64.9 °F 55.9 °F 73% 30.01 in 5.0 mi West 8.1 mph - N/A   Mostly Cloudy
11:53 AM 64.9 °F 55.9 °F 73% 30.00 in 6.0 mi WNW 8.1 mph - N/A   Haze
12:53 PM 64.9 °F 55.9 °F 73% 29.97 in 7.0 mi West 10.4 mph - N/A   Scattered Clouds
1:53 PM 66.0 °F 55.9 °F 70% 29.95 in 8.0 mi West 12.7 mph - N/A   Scattered Clouds
2:53 PM 66.0 °F 55.9 °F 70% 29.94 in 8.0 mi West 12.7 mph - N/A   Scattered Clouds
3:53 PM 64.9 °F 55.9 °F 73% 29.93 in 10.0 mi West 12.7 mph - N/A   Scattered Clouds
4:53 PM 64.0 °F 55.9 °F 75% 29.91 in 10.0 mi West 13.8 mph - N/A   Scattered Clouds
5:53 PM 63.0 °F 57.0 °F 81% 29.91 in 10.0 mi West 12.7 mph - N/A   Scattered Clouds
6:33 PM 62.6 °F 57.2 °F 82% 29.92 in 10.0 mi West 11.5 mph - N/A   Mostly Cloudy
6:53 PM 62.1 °F 57.0 °F 84% 29.93 in 10.0 mi WSW 11.5 mph - N/A   Mostly Cloudy
7:53 PM 62.1 °F 57.0 °F 84% 29.94 in 10.0 mi West 11.5 mph - N/A   Overcast
8:53 PM 62.1 °F 57.0 °F 84% 29.96 in 10.0 mi WSW 8.1 mph - N/A   Overcast
9:15 PM 62.6 °F 57.2 °F 82% 29.96 in 10.0 mi Variable 6.9 mph - N/A   Overcast
9:53 PM 62.1 °F 57.0 °F 84% 29.96 in 10.0 mi NNW 5.8 mph - N/A   Mostly Cloudy
10:41 PM 62.6 °F 57.2 °F 82% 29.96 in 10.0 mi NW 4.6 mph - N/A   Scattered Clouds
10:53 PM 62.1 °F 57.0 °F 84% 29.96 in 10.0 mi West 5.8 mph - N/A   Scattered Clouds
11:13 PM 60.8 °F 55.4 °F 82% 29.95 in 9.0 mi WSW 6.9 mph - N/A   Mostly Cloudy
11:53 PM 61.0 °F 57.0 °F 87% 29.94 in 10.0 mi West 5.8 mph - N/A   Mostly Cloudy